Vorticity
6 8 9 7 5 8 11 11 12 13 13 16 21 4 10 10 9 11 10 10 18 13
8 5 5 6 8 10 8 12 12 15 17 17 11 9 5 11 14 10 11 12 14 18
4 3 6 8 8 7 10 13 19 20 17 12 7 8 10 11 9 14 14 12 11 11
6 9 7 4 8 11 13 13 20 19 15 16 17 9 8 10 10 14 16 16 15 14
5 3 9 17 14 14 13 15 22 19 18 17 17 18 14 13 13 12 10 11 10 8
14 17 15 11 12 11 22 21 22 21 17 15 12 12 14 15 13 11 12 12 12 10
13 11 12 12 12 22 24 23 17 16 13 13 12 11 8 11 11 8 8 10 13 16
11 15 13 14 23 25 21 17 16 14 11 10 6 13 11 7 9 14 21 23 22 23
15 18 19 25 24 19 14 11 9 11 5 9 14 8 8 11 19 19 21 33 36 28
19 24 22 17 16 11 11 12 10 5 13 11 9 8 13 18 19 27 38 30 16 16
28 23 21 17 11 12 14 9 6 12 11 8 9 13 17 19 36 35 18 9 5 4
25 18 15 14 15 12 5 9 12 10 8 11 13 16 18 37 37 13 4 6 11 15
19 15 13 14 11 4 7 10 10 9 12 14 14 16 35 32 12 2 8 16 13 12
12 13 14 10 3 5 10 10 10 13 15 15 15 27 33 17 3 8 15 12 13 20
Height
5648 5640 5631 5624 5616 5608 5598 5591 5587 5580 5572 5565 5557 5551 5544 5539 5534 5529 5525 5522 5520 5518
5636 5626 5617 5608 5599 5590 5581 5573 5566 5560 5551 5544 5539 5532 5525 5521 5516 5510 5507 5504 5501 5498
5620 5610 5599 5589 5580 5572 5563 5556 5546 5538 5531 5523 5516 5510 5505 5503 5499 5493 5490 5485 5482 5481
5603 5592 5582 5571 5560 5552 5544 5536 5528 5519 5511 5505 5498 5492 5488 5483 5479 5475 5472 5468 5463 5462
5584 5574 5563 5553 5544 5534 5525 5515 5507 5499 5493 5487 5481 5475 5470 5465 5461 5458 5454 5449 5444 5442
5567 5557 5546 5534 5524 5513 5503 5494 5486 5481 5475 5470 5464 5459 5454 5449 5445 5440 5435 5429 5423 5419
5545 5535 5525 5514 5505 5494 5485 5477 5470 5465 5460 5454 5449 5443 5437 5432 5426 5420 5415 5408 5401 5395
5523 5513 5503 5494 5485 5477 5468 5462 5456 5450 5445 5439 5433 5426 5420 5413 5407 5401 5394 5386 5378 5371
5503 5493 5483 5474 5466 5459 5452 5446 5440 5435 5429 5424 5416 5409 5402 5394 5388 5381 5372 5364 5357 5353
5486 5476 5468 5460 5453 5446 5440 5434 5428 5422 5415 5408 5401 5393 5385 5376 5369 5360 5353 5349 5346 5344
5470 5461 5454 5447 5440 5434 5428 5422 5415 5408 5400 5393 5384 5375 5368 5359 5351 5346 5343 5340 5338 5335
5454 5447 5441 5435 5428 5421 5415 5409 5401 5393 5385 5377 5369 5360 5352 5344 5340 5338 5336 5332 5328 5324
5439 5433 5426 5420 5413 5408 5401 5395 5387 5379 5370 5362 5355 5347 5340 5334 5332 5331 5329 5324 5319 5314
5425 5419 5413 5406 5400 5394 5387 5380 5373 5365 5356 5348 5341 5336 5331 5327 5326 5324 5320 5315 5310 5305